Location: *
(37.4917°N, 71.5558°E)
Time: 09:05:43
(UTC+00:00)

ATLAS 2AS CENTAUR R/B - Pass Details

Date: 09 April 2020
Orbit: 931 x 1280 km, 63.7° (Epoch: 31 May)

Event Time Altitude Azimuth Distance (km) Brightness Sun altitude
Rises 14:34:36 0° 330° (NNW) 4,152 6.6 -10.6°
Reaches altitude 10° 14:37:32 10° 334° (NNW) 3,142 5.8 -11.1°
Maximum altitude 14:44:57 59° 53° (NE) 1,285 3.0 -12.5°
Enters shadow 14:50:31 16° 130° (SE) 2,475 4.0 -13.5°
